"Time","Value","Approval","myLocation"
"2023-05-06 00:00",5.75968883037307,"Approved","OW071"
"2023-05-06 01:00",5.75987544084853,"Approved","OW071"
"2023-05-06 02:00",5.75904007732398,"Approved","OW071"
"2023-05-06 03:00",5.76135865179944,"Approved","OW071"
"2023-05-06 04:00",5.75954526327489,"Approved","OW071"
"2023-05-06 05:00",5.76022588075035,"Approved","OW071"
"2023-05-06 06:00",5.76217641922581,"Approved","OW071"
"2023-05-06 07:00",5.76382496070126,"Approved","OW071"
"2023-05-06 08:00",5.76272355817672,"Approved","OW071"
"2023-05-06 09:00",5.76295611665217,"Approved","OW071"
"2023-05-06 10:00",5.76295071912763,"Approved","OW071"
"2023-05-06 11:00",5.76485730760309,"Approved","OW071"
"2023-05-06 12:00",5.76816789107854,"Approved","OW071"
"2023-05-06 13:00",5.769586465554,"Approved","OW071"
"2023-05-06 14:00",5.76850903602945,"Approved","OW071"
"2023-05-06 15:00",5.76849564750491,"Approved","OW071"
"2023-05-06 16:00",5.76998625398036,"Approved","OW071"
"2023-05-06 17:00",5.77031082145582,"Approved","OW071"
"2023-05-06 18:00",5.77002340293128,"Approved","OW071"
"2023-05-06 19:00",5.76996794840673,"Approved","OW071"
"2023-05-06 20:00",5.76992048488219,"Approved","OW071"
"2023-05-06 21:00",5.76801508735764,"Approved","OW071"
"2023-05-06 22:00",5.7675356598331,"Approved","OW071"
"2023-05-06 23:00",5.76766022730856,"Approved","OW071"
"2023-05-07 00:00",5.76698879078401,"Approved","OW071"
"2023-05-07 01:00",5.76631136125947,"Approved","OW071"
"2023-05-07 02:00",5.76642194573492,"Approved","OW071"
"2023-05-07 03:00",5.76645650221038,"Approved","OW071"
"2023-05-07 04:00",5.76596708568584,"Approved","OW071"
"2023-05-07 05:00",5.76821762416129,"Approved","OW071"
"2023-05-07 06:00",5.76929413363675,"Approved","OW071"
"2023-05-07 07:00",5.7676426741122,"Approved","OW071"
"2023-05-07 08:00",5.76757723058766,"Approved","OW071"
"2023-05-07 09:00",5.76871178806311,"Approved","OW071"
"2023-05-07 10:00",5.76770439153857,"Approved","OW071"
"2023-05-07 11:00",5.76789699601403,"Approved","OW071"
"2023-05-07 12:00",5.76922356148948,"Approved","OW071"
"2023-05-07 13:00",5.77003614396494,"Approved","OW071"
"2023-05-07 14:00",5.76943873644039,"Approved","OW071"
"2023-05-07 15:00",5.76910736791585,"Approved","OW071"
"2023-05-07 16:00",5.7698620153913,"Approved","OW071"
"2023-05-07 17:00",5.77011466486676,"Approved","OW071"
"2023-05-07 18:00",5.76956531634222,"Approved","OW071"
"2023-05-07 19:00",5.76893994181767,"Approved","OW071"
"2023-05-07 20:00",5.77005452029313,"Approved","OW071"
"2023-05-07 21:00",5.76873314076858,"Approved","OW071"
"2023-05-07 22:00",5.76821375924404,"Approved","OW071"
"2023-05-07 23:00",5.7661783947195,"Approved","OW071"
"2023-05-08 00:00",5.76665501719495,"Approved","OW071"
"2023-05-08 01:00",5.76551365967041,"Approved","OW071"
"2023-05-08 02:00",5.76477030514586,"Approved","OW071"
"2023-05-08 03:00",5.76514892562132,"Approved","OW071"
"2023-05-08 04:00",5.76380956609677,"Approved","OW071"
"2023-05-08 05:00",5.76673812957223,"Approved","OW071"
"2023-05-08 06:00",5.76617668104769,"Approved","OW071"
"2023-05-08 07:00",5.76732721952314,"Approved","OW071"
"2023-05-08 08:00",5.7653098359986,"Approved","OW071"
"2023-05-08 09:00",5.76333251947405,"Approved","OW071"
"2023-05-08 10:00",5.76300914194951,"Approved","OW071"
"2023-05-08 11:00",5.76381572942497,"Approved","OW071"
"2023-05-08 12:00",5.76448436090042,"Approved","OW071"
"2023-05-08 13:00",5.76543101737588,"Approved","OW071"
"2023-05-08 14:00",5.76609765185133,"Approved","OW071"
"2023-05-08 15:00",5.76860424032679,"Approved","OW071"
"2023-05-08 16:00",5.76840483480224,"Approved","OW071"
"2023-05-08 17:00",5.7682874502777,"Approved","OW071"
"2023-05-08 18:00",5.77029204175316,"Approved","OW071"
"2023-05-08 19:00",5.77033458922861,"Approved","OW071"
"2023-05-08 20:00",5.77210310670407,"Approved","OW071"
"2023-05-08 21:00",5.77166563217952,"Approved","OW071"
"2023-05-08 22:00",5.77118420665498,"Approved","OW071"
"2023-05-08 23:00",5.77071476813043,"Approved","OW071"
"2023-05-09 00:00",5.77095731560589,"Approved","OW071"
"2023-05-09 01:00",5.77386778608135,"Approved","OW071"
"2023-05-09 02:00",5.7715223205568,"Approved","OW071"
"2023-05-09 03:00",5.77170082703226,"Approved","OW071"
"2023-05-09 04:00",5.77248932250771,"Approved","OW071"
"2023-05-09 05:00",5.77186982698317,"Approved","OW071"
"2023-05-09 06:00",5.77306231845863,"Approved","OW071"
"2023-05-09 07:00",5.77193283393408,"Approved","OW071"
"2023-05-09 08:00",5.77065140840954,"Approved","OW071"
"2023-05-09 09:00",5.77086798588499,"Approved","OW071"
"2023-05-09 10:00",5.77242651536045,"Approved","OW071"
"2023-05-09 11:00",5.7713370988359,"Approved","OW071"
"2023-05-09 12:00",5.77008375531136,"Approved","OW071"
"2023-05-09 13:00",5.77134239878682,"Approved","OW071"
"2023-05-09 14:00",5.77058106426227,"Approved","OW071"
"2023-05-09 15:00",5.76990174973773,"Approved","OW071"
"2023-05-09 16:00",5.76995439921318,"Approved","OW071"
"2023-05-09 17:00",5.77184700368864,"Approved","OW071"
"2023-05-09 18:00",5.77385958516409,"Approved","OW071"
"2023-05-09 19:00",5.77378215563955,"Approved","OW071"
"2023-05-09 20:00",5.77432670111501,"Approved","OW071"
"2023-05-09 21:00",5.77172330059046,"Approved","OW071"
"2023-05-09 22:00",5.77090192106592,"Approved","OW071"
"2023-05-09 23:00",5.77049252754137,"Approved","OW071"
"2023-05-10 00:00",5.76946515401683,"Approved","OW071"
"2023-05-10 01:00",5.76842579449229,"Approved","OW071"
"2023-05-10 02:00",5.76952039696774,"Approved","OW071"
"2023-05-10 03:00",5.7688269854432,"Approved","OW071"
"2023-05-10 04:00",5.76718962391865,"Approved","OW071"
"2023-05-10 05:00",5.76952018439411,"Approved","OW071"
"2023-05-10 06:00",5.77005474186957,"Approved","OW071"
"2023-05-10 07:00",5.76996932034502,"Approved","OW071"
"2023-05-10 08:00",5.76886392282048,"Approved","OW071"
"2023-05-10 09:00",5.76855452929593,"Approved","OW071"
"2023-05-10 10:00",5.76883514677139,"Approved","OW071"
"2023-05-10 11:00",5.76728380124684,"Approved","OW071"
"2023-05-10 12:00",5.7696484377223,"Approved","OW071"
"2023-05-10 13:00",5.76785513919776,"Approved","OW071"
"2023-05-10 14:00",5.76949180667321,"Approved","OW071"
"2023-05-10 15:00",5.77023047214867,"Approved","OW071"
"2023-05-10 16:00",5.77067513062412,"Approved","OW071"
"2023-05-10 17:00",5.77172578309958,"Approved","OW071"
"2023-05-10 18:00",5.77393636657504,"Approved","OW071"
"2023-05-10 19:00",5.77487292105049,"Approved","OW071"
"2023-05-10 20:00",5.77817939652595,"Approved","OW071"
"2023-05-10 21:00",5.7745219440014,"Approved","OW071"
"2023-05-10 22:00",5.77496848647686,"Approved","OW071"
"2023-05-10 23:00",5.77360304395231,"Approved","OW071"
"2023-05-11 00:00",5.77364559142777,"Approved","OW071"
"2023-05-11 01:00",5.77380012490323,"Approved","OW071"
"2023-05-11 02:00",5.77425665737868,"Approved","OW071"
"2023-05-11 03:00",5.77260120185414,"Approved","OW071"
"2023-05-11 04:00",5.77365973132959,"Approved","OW071"
"2023-05-11 05:00",5.77351226780505,"Approved","OW071"
"2023-05-11 06:00",5.7753387202805,"Approved","OW071"
"2023-05-11 07:00",5.77453920275596,"Approved","OW071"
"2023-05-11 08:00",5.77552170423142,"Approved","OW071"
"2023-05-11 09:00",5.77407424070687,"Approved","OW071"
"2023-05-11 10:00",5.77276884318233,"Approved","OW071"
"2023-05-11 11:00",5.77366144665778,"Approved","OW071"
"2023-05-11 12:00",5.77173207613324,"Approved","OW071"
"2023-05-11 13:00",5.7721727396087,"Approved","OW071"
"2023-05-11 14:00",5.77149142808415,"Approved","OW071"
"2023-05-11 15:00",5.77252409955961,"Approved","OW071"
"2023-05-11 16:00",5.77365877003506,"Approved","OW071"
"2023-05-11 17:00",5.77391141951052,"Approved","OW071"
"2023-05-11 18:00",5.77447605598597,"Approved","OW071"
"2023-05-11 19:00",5.77529063446143,"Approved","OW071"
"2023-05-11 20:00",5.77765715493689,"Approved","OW071"
"2023-05-11 21:00",5.77531168941234,"Approved","OW071"
"2023-05-11 22:00",5.7761662228878,"Approved","OW071"
"2023-05-11 23:00",5.77561476436325,"Approved","OW071"
"2023-05-12 00:00",5.77740925283871,"Approved","OW071"
"2023-05-12 01:00",5.77660174331417,"Approved","OW071"
"2023-05-12 02:00",5.77392431378962,"Approved","OW071"
"2023-05-12 03:00",5.77456686126508,"Approved","OW071"
"2023-05-12 04:00",5.77431739974053,"Approved","OW071"
"2023-05-12 05:00",5.77498791621599,"Approved","OW071"
"2023-05-12 06:00",5.77587241569144,"Approved","OW071"
"2023-05-12 07:00",5.7766669051669,"Approved","OW071"
"2023-05-12 08:00",5.77625939564236,"Approved","OW071"
"2023-05-12 09:00",5.77528795911781,"Approved","OW071"
"2023-05-12 10:00",5.77469454759327,"Approved","OW071"
"2023-05-12 11:00",5.77459714006872,"Approved","OW071"
"2023-05-12 12:00",5.77304579454418,"Approved","OW071"
"2023-05-12 13:00",5.77470044201964,"Approved","OW071"
"2023-05-12 14:00",5.77252112749509,"Approved","OW071"
"2023-05-12 15:00",5.77283781797055,"Approved","OW071"
"2023-05-12 16:00",5.774484474446,"Approved","OW071"
"2023-05-12 17:00",5.77534711292146,"Approved","OW071"
"2023-05-12 18:00",5.77612373539691,"Approved","OW071"
"2023-05-12 19:00",5.77905829187237,"Approved","OW071"
"2023-05-12 20:00",5.78075078334783,"Approved","OW071"
"2023-05-12 21:00",5.77970531682328,"Approved","OW071"
"2023-05-12 22:00",5.77622788729874,"Approved","OW071"
"2023-05-12 23:00",5.77806244377419,"Approved","OW071"
"2023-05-13 00:00",5.77884494624965,"Approved","OW071"
"2023-05-13 01:00",5.7759675167251,"Approved","OW071"
"2023-05-13 02:00",5.77568009820056,"Approved","OW071"
"2023-05-13 03:00",5.77589467767602,"Approved","OW071"
"2023-05-13 04:00",5.77624921115147,"Approved","OW071"
"2023-05-13 05:00",5.77673171362693,"Approved","OW071"
"2023-05-13 06:00",5.77845816610238,"Approved","OW071"
"2023-05-13 07:00",5.77579871657784,"Approved","OW071"
"2023-05-13 08:00",5.7745913200533,"Approved","OW071"
"2023-05-13 09:00",5.77301799952875,"Approved","OW071"
"2023-05-13 10:00",5.77243069400421,"Approved","OW071"
"2023-05-13 11:00",5.77468933747966,"Approved","OW071"
"2023-05-13 12:00",5.77147805895512,"Approved","OW071"
"2023-05-13 13:00",5.77185479543058,"Approved","OW071"
"2023-05-13 14:00",5.77021355090603,"Approved","OW071"
"2023-05-13 15:00",5.76956431638149,"Approved","OW071"
"2023-05-13 16:00",5.77042706785694,"Approved","OW071"
"2023-05-13 17:00",5.7709938153324,"Approved","OW071"
"2023-05-13 18:00",5.77179652180785,"Approved","OW071"
"2023-05-13 19:00",5.77555915928331,"Approved","OW071"
"2023-05-13 20:00",5.77811569175877,"Approved","OW071"
"2023-05-13 21:00",5.77774425523422,"Approved","OW071"
"2023-05-13 22:00",5.77777281870968,"Approved","OW071"
"2023-05-13 23:00",5.77606742018513,"Approved","OW071"
"2023-05-14 00:00",5.77302206766059,"Approved","OW071"
"2023-05-14 01:00",5.77349269713604,"Approved","OW071"
"2023-05-14 02:00",5.7702193756115,"Approved","OW071"
"2023-05-14 03:00",5.76978800708696,"Approved","OW071"
"2023-05-14 04:00",5.76956063456241,"Approved","OW071"
"2023-05-14 05:00",5.77187321603787,"Approved","OW071"
"2023-05-14 06:00",5.77198180251332,"Approved","OW071"
"2023-05-14 07:00",5.76933045598878,"Approved","OW071"
"2023-05-14 08:00",5.76824514846424,"Approved","OW071"
"2023-05-14 09:00",5.76865784393969,"Approved","OW071"
"2023-05-14 10:00",5.76918052741515,"Approved","OW071"
"2023-05-14 11:00",5.7708012128906,"Approved","OW071"
"2023-05-14 12:00",5.77090991236606,"Approved","OW071"
"2023-05-14 13:00",5.76937865784151,"Approved","OW071"
"2023-05-14 14:00",5.77134940031697,"Approved","OW071"
"2023-05-14 15:00",5.77072214079243,"Approved","OW071"
"2023-05-14 16:00",5.77264282626788,"Approved","OW071"
"2023-05-14 17:00",5.77285951674334,"Approved","OW071"
"2023-05-14 18:00",5.77310617321879,"Approved","OW071"
"2023-05-14 19:00",5.77602274969425,"Approved","OW071"
"2023-05-14 20:00",5.77799726116971,"Approved","OW071"
"2023-05-14 21:00",5.77704580264516,"Approved","OW071"
"2023-05-14 22:00",5.77544839512062,"Approved","OW071"
"2023-05-14 23:00",5.77330703759607,"Approved","OW071"
"2023-05-15 00:00",5.77349364907153,"Approved","OW071"
"2023-05-15 01:00",5.77277626454698,"Approved","OW071"
"2023-05-15 02:00",5.77173291002244,"Approved","OW071"
"2023-05-15 03:00",5.7702995434979,"Approved","OW071"
"2023-05-15 04:00",5.77252411197335,"Approved","OW071"
"2023-05-15 05:00",5.77388863444881,"Approved","OW071"
"2023-05-15 06:00",5.77320321392426,"Approved","OW071"
"2023-05-15 07:00",5.77320580639972,"Approved","OW071"
"2023-05-15 08:00",5.77341439287518,"Approved","OW071"
"2023-05-15 09:00",5.77369900635063,"Approved","OW071"
"2023-05-15 10:00",5.77496364182609,"Approved","OW071"
"2023-05-15 11:00",5.77583626930154,"Approved","OW071"
"2023-05-15 12:00",5.775782925777,"Approved","OW071"
"2023-05-15 13:00",5.77459761825245,"Approved","OW071"
"2023-05-15 14:00",5.77522030172791,"Approved","OW071"
"2023-05-15 15:00",5.77666296220337,"Approved","OW071"
"2023-05-15 16:00",5.77862360267882,"Approved","OW071"
"2023-05-15 17:00",5.77885627515428,"Approved","OW071"
"2023-05-15 18:00",5.78203889062973,"Approved","OW071"
"2023-05-15 19:00",5.78487944110519,"Approved","OW071"
"2023-05-15 20:00",5.78800189758064,"Approved","OW071"
"2023-05-15 21:00",5.7844444450561,"Approved","OW071"
"2023-05-15 22:00",5.78795691353156,"Approved","OW071"
"2023-05-15 23:00",5.79459312800701,"Approved","OW071"
"2023-05-16 00:00",5.79335753748247,"Approved","OW071"
"2023-05-16 01:00",5.78686013095792,"Approved","OW071"
"2023-05-16 02:00",5.78377670743338,"Approved","OW071"
"2023-05-16 03:00",5.78468118490884,"Approved","OW071"
"2023-05-16 04:00",5.78552162138429,"Approved","OW071"
"2023-05-16 05:00",5.78875606485975,"Approved","OW071"
"2023-05-16 06:00",5.7839405643352,"Approved","OW071"
"2023-05-16 07:00",5.78354715281066,"Approved","OW071"
"2023-05-16 08:00",5.78682366228611,"Approved","OW071"
"2023-05-16 09:00",5.78800216876157,"Approved","OW071"
"2023-05-16 10:00",5.78874072123703,"Approved","OW071"
"2023-05-16 11:00",5.78729736671248,"Approved","OW071"
"2023-05-16 12:00",5.78824202518794,"Approved","OW071"
"2023-05-16 13:00",5.78570877166339,"Approved","OW071"
"2023-05-16 14:00",5.78453556413885,"Approved","OW071"
"2023-05-16 15:00",5.78507634061431,"Approved","OW071"
"2023-05-16 16:00",5.78555507408976,"Approved","OW071"
"2023-05-16 17:00",5.78805578256522,"Approved","OW071"
"2023-05-16 18:00",5.79010643504067,"Approved","OW071"
"2023-05-16 19:00",5.79255297751613,"Approved","OW071"
"2023-05-16 20:00",5.79391150699159,"Approved","OW071"
"2023-05-16 21:00",5.79392608646704,"Approved","OW071"
"2023-05-16 22:00",5.7940466589425,"Approved","OW071"
"2023-05-16 23:00",5.79336922941795,"Approved","OW071"
"2023-05-17 00:00",5.79248192489341,"Approved","OW071"
"2023-05-17 01:00",5.79843446036886,"Approved","OW071"
"2023-05-17 02:00",5.79461108284432,"Approved","OW071"
"2023-05-17 03:00",5.79619969231978,"Approved","OW071"
"2023-05-17 04:00",5.79619429379523,"Approved","OW071"
"2023-05-17 05:00",5.79769289127069,"Approved","OW071"
"2023-05-17 06:00",5.79659348674614,"Approved","OW071"
"2023-05-17 07:00",5.7960681112216,"Approved","OW071"
"2023-05-17 08:00",5.79814473369705,"Approved","OW071"
"2023-05-17 09:00",5.79678539717251,"Approved","OW071"
"2023-05-17 10:00",5.79781207564797,"Approved","OW071"
"2023-05-17 11:00",5.79549480512342,"Approved","OW071"
"2023-05-17 12:00",5.79756155159888,"Approved","OW071"
"2023-05-17 13:00",5.79773029707433,"Approved","OW071"
"2023-05-17 14:00",5.79819704354979,"Approved","OW071"
"2023-05-17 15:00",5.79833382502525,"Approved","OW071"
"2023-05-17 16:00",5.7985785975007,"Approved","OW071"
"2023-05-17 17:00",5.80083335797616,"Approved","OW071"
"2023-05-17 18:00",5.80364805045161,"Approved","OW071"
"2023-05-17 19:00",5.80377872492707,"Approved","OW071"
"2023-05-17 20:00",5.80649929740252,"Approved","OW071"
"2023-05-17 21:00",5.80603984687798,"Approved","OW071"
"2023-05-17 22:00",5.80719038635344,"Approved","OW071"
"2023-05-17 23:00",5.80663892682889,"Approved","OW071"
"2023-05-18 00:00",5.80744751330435,"Approved","OW071"
"2023-05-18 01:00",5.8076740787798,"Approved","OW071"
"2023-05-18 02:00",5.80707067825526,"Approved","OW071"
"2023-05-18 03:00",5.80859924173071,"Approved","OW071"
"2023-05-18 04:00",5.81022381020617,"Approved","OW071"
"2023-05-18 05:00",5.81178633468163,"Approved","OW071"
"2023-05-18 06:00",5.81316683915708,"Approved","OW071"
"2023-05-18 07:00",5.81182536863254,"Approved","OW071"
"2023-05-18 08:00",5.81178589610799,"Approved","OW071"
"2023-05-18 09:00",5.81263643458345,"Approved","OW071"
"2023-05-18 10:00",5.81297099105891,"Approved","OW071"
"2023-05-18 11:00",5.81379555953436,"Approved","OW071"
"2023-05-18 12:00",5.81573211400982,"Approved","OW071"
"2023-05-18 13:00",5.81966866848527,"Approved","OW071"
"2023-05-18 14:00",5.81792930896073,"Approved","OW071"
"2023-05-18 15:00",5.82010193543619,"Approved","OW071"
"2023-05-18 16:00",5.82059653791164,"Approved","OW071"
"2023-05-18 17:00",5.8225270983871,"Approved","OW071"
"2023-05-18 18:00",5.82448363086255,"Approved","OW071"
"2023-05-18 19:00",5.82616613233801,"Approved","OW071"
"2023-05-18 20:00",5.82758858981346,"Approved","OW071"
"2023-05-18 21:00",5.82539706228892,"Approved","OW071"
"2023-05-18 22:00",5.82446757876438,"Approved","OW071"
"2023-05-18 23:00",5.82445008023983,"Approved","OW071"
"2023-05-19 00:00",5.82583857571529,"Approved","OW071"
"2023-05-19 01:00",5.82590509619074,"Approved","OW071"
"2023-05-19 02:00",5.8256776106662,"Approved","OW071"
"2023-05-19 03:00",5.82566011214166,"Approved","OW071"
"2023-05-19 04:00",5.82635460161711,"Approved","OW071"
"2023-05-19 05:00",5.82787705809257,"Approved","OW071"
"2023-05-19 06:00",5.82666755156802,"Approved","OW071"
"2023-05-19 07:00",5.82724206304348,"Approved","OW071"
"2023-05-19 08:00",5.82669459851893,"Approved","OW071"
"2023-05-19 09:00",5.82612515999439,"Approved","OW071"
"2023-05-19 10:00",5.82532175946985,"Approved","OW071"
"2023-05-19 11:00",5.8257943869453,"Approved","OW071"
"2023-05-19 12:00",5.82542506142076,"Approved","OW071"
"2023-05-19 13:00",5.82605773389621,"Approved","OW071"
"2023-05-19 14:00",5.82385244937167,"Approved","OW071"
"2023-05-19 15:00",5.82481719784712,"Approved","OW071"
"2023-05-19 16:00",5.82568993832258,"Approved","OW071"
"2023-05-19 17:00",5.82718665179804,"Approved","OW071"
"2023-05-19 18:00",5.82858935827349,"Approved","OW071"
"2023-05-19 19:00",5.83090793274895,"Approved","OW071"
"2023-05-19 20:00",5.8335664622244,"Approved","OW071"
"2023-05-19 21:00",5.83360501469986,"Approved","OW071"
"2023-05-19 22:00",5.83322958217532,"Approved","OW071"
"2023-05-19 23:00",5.83541208465077,"Approved","OW071"
"2023-05-20 00:00",5.83421667512623,"Approved","OW071"
"2023-05-20 01:00",5.83448319560168,"Approved","OW071"
"2023-05-20 02:00",5.83503373407714,"Approved","OW071"
"2023-05-20 03:00",5.8353022525526,"Approved","OW071"
"2023-05-20 04:00",5.83554879502805,"Approved","OW071"
"2023-05-20 05:00",5.83888923250351,"Approved","OW071"
"2023-05-20 06:00",5.83848971397896,"Approved","OW071"
"2023-05-20 07:00",5.83429830045442,"Approved","OW071"
"2023-05-20 08:00",5.83264495692987,"Approved","OW071"
"2023-05-20 09:00",5.83431558540533,"Approved","OW071"
"2023-05-20 10:00",5.83573615788078,"Approved","OW071"
"2023-05-20 11:00",5.83399480135624,"Approved","OW071"
"2023-05-20 12:00",5.8340394598317,"Approved","OW071"
"2023-05-20 13:00",5.83395215430715,"Approved","OW071"
"2023-05-20 14:00",5.83343488378261,"Approved","OW071"
"2023-05-20 15:00",5.83358764625806,"Approved","OW071"
"2023-05-20 16:00",5.83506637973352,"Approved","OW071"
"2023-05-20 17:00",5.83707707720898,"Approved","OW071"
"2023-05-20 18:00",5.84179165668443,"Approved","OW071"
"2023-05-20 19:00",5.84396417015989,"Approved","OW071"
"2023-05-20 20:00",5.84532869263534,"Approved","OW071"
"2023-05-20 21:00",5.8470091971108,"Approved","OW071"
"2023-05-20 22:00",5.84536572958626,"Approved","OW071"
"2023-05-20 23:00",5.84499029706171,"Approved","OW071"
"2023-05-21 00:00",5.84493684053717,"Approved","OW071"
"2023-05-21 01:00",5.84348138601262,"Approved","OW071"
"2023-05-21 02:00",5.84431194648808,"Approved","OW071"
"2023-05-21 03:00",5.84508246296353,"Approved","OW071"
"2023-05-21 04:00",5.84503499843899,"Approved","OW071"
"2023-05-21 05:00",5.84559752391445,"Approved","OW071"
"2023-05-21 06:00",5.8460680393899,"Approved","OW071"
"2023-05-21 07:00",5.84632656886536,"Approved","OW071"
"2023-05-21 08:00",5.84746911634081,"Approved","OW071"
"2023-05-21 09:00",5.84635173281627,"Approved","OW071"
"2023-05-21 10:00",5.84868029629173,"Approved","OW071"
"2023-05-21 11:00",5.85030686176718,"Approved","OW071"
"2023-05-21 12:00",5.85008148624264,"Approved","OW071"
"2023-05-21 13:00",5.85142814271809,"Approved","OW071"
"2023-05-21 14:00",5.85199078119355,"Approved","OW071"
"2023-05-21 15:00",5.852255416669,"Approved","OW071"
"2023-05-21 16:00",5.85365601214446,"Approved","OW071"
"2023-05-21 17:00",5.85375061461992,"Approved","OW071"
"2023-05-21 18:00",5.85374721409537,"Approved","OW071"
"2023-05-21 19:00",5.85298776357083,"Approved","OW071"
"2023-05-21 20:00",5.85430633904628,"Approved","OW071"
"2023-05-21 21:00",5.85383290452174,"Approved","OW071"
"2023-05-21 22:00",5.85365347699719,"Approved","OW071"
"2023-05-21 23:00",5.85416206347265,"Approved","OW071"
"2023-05-22 00:00",5.85143269194811,"Approved","OW071"
"2023-05-22 01:00",5.85293128942356,"Approved","OW071"
"2023-05-22 02:00",5.85241790089902,"Approved","OW071"
"2023-05-22 03:00",5.85214246837447,"Approved","OW071"
"2023-05-22 04:00",5.85092708184993,"Approved","OW071"
"2023-05-22 05:00",5.84971369332539,"Approved","OW071"
"2023-05-22 06:00",5.84737633180084,"Approved","OW071"
"2023-05-22 07:00",5.8488849172763,"Approved","OW071"
"2023-05-22 08:00",5.84941348075175,"Approved","OW071"
"2023-05-22 09:00",5.84860808322721,"Approved","OW071"
"2023-05-22 10:00",5.85093464870266,"Approved","OW071"
"2023-05-22 11:00",5.85166121417812,"Approved","OW071"
"2023-05-22 12:00",5.85194782565358,"Approved","OW071"
"2023-05-22 13:00",5.85121645712903,"Approved","OW071"
"2023-05-22 14:00",5.84685112760449,"Approved","OW071"
"2023-05-22 15:00",5.84670177907994,"Approved","OW071"
"2023-05-22 16:00",5.8509003765554,"Approved","OW071"
"2023-05-22 17:00",5.85239897403086,"Approved","OW071"
"2023-05-22 18:00",5.85550955750631,"Approved","OW071"
"2023-05-22 19:00",5.85624011898177,"Approved","OW071"
"2023-05-22 20:00",5.85727667345722,"Approved","OW071"
"2023-05-22 21:00",5.85660723493268,"Approved","OW071"
"2023-05-22 22:00",5.85600783040813,"Approved","OW071"
"2023-05-22 23:00",5.85685037788359,"Approved","OW071"
"2023-05-23 00:00",5.85706895235905,"Approved","OW071"
"2023-05-23 01:00",5.8554435768345,"Approved","OW071"
"2023-05-23 02:00",5.85314828130996,"Approved","OW071"
"2023-05-23 03:00",5.85432290578541,"Approved","OW071"
"2023-05-23 04:00",5.85595546426087,"Approved","OW071"
"2023-05-23 05:00",5.85741199673633,"Approved","OW071"
"2023-05-23 06:00",5.85541458921178,"Approved","OW071"
"2023-05-23 07:00",5.85437522968724,"Approved","OW071"
"2023-05-23 08:00",5.85424386116269,"Approved","OW071"
"2023-05-23 09:00",5.85622248163815,"Approved","OW071"
"2023-05-23 10:00",5.85550509711361,"Approved","OW071"
"2023-05-23 11:00",5.85638171958906,"Approved","OW071"
"2023-05-23 12:00",5.85625634406452,"Approved","OW071"
"2023-05-23 13:00",5.85733496453997,"Approved","OW071"
"2023-05-23 14:00",5.85548761401543,"Approved","OW071"
"2023-05-23 15:00",5.85720630249088,"Approved","OW071"
"2023-05-23 16:00",5.85765695396634,"Approved","OW071"
"2023-05-23 17:00",5.8576155964418,"Approved","OW071"
"2023-05-23 18:00",5.85910420591725,"Approved","OW071"
"2023-05-23 19:00",5.85969481239271,"Approved","OW071"